Location: Kapla
(46.2483°N, 15.0094°E)
Time: 15:24:42
(UTC+00:00)

Cosmos 2360 Rocket - Pass Details

Date: 03 March 2021
Orbit: 832 x 846 km, 71.0° (Epoch: 14 April)

Event Time Altitude Azimuth Distance (km) Brightness Sun altitude
Rises 18:37:16 0° 213° (SSW) 3,376 5.6 -19.4°
Reaches altitude 10° 18:39:43 10° 216° (SW) 2,448 4.9 -19.8°
Maximum altitude 18:45:18 67° 299° (WNW) 910 2.5 -20.8°
Drops below altitude 10° 18:50:58 10° 22° (NNE) 2,473 4.5 -21.7°
Sets 18:53:27 0° 25° (NNE) 3,413 5.2 -22.1°
